Torna al catalogo

METEOR 2-8 DEB

AttivoPO
NORAD 36325·DEBRIS·🇷🇺 Russia

Lanciato Mar 25, 1982 da Plesetsk Cosmodrome

Loading…

Prossimi Passaggi (prossime 24 ore)

TLE

AggiornatoSource: Space-Track

Epoca: Sep 14, 2026, 10:08 UTC

1 36325U 82025K   26257.42272596  .00000881  00000-0  40122-3 0  9994
2 36325  82.5127 152.7697 0018714  24.9483 335.2597 14.20643583664875

Traccia METEOR 2-8 DEB in tempo reale con AllMySat

Download on the App Store